Location: Saint-Palais-sur-Mer
(45.6429°N, 1.0859°W)
Time: 00:10:26
(UTC+01:00)

Tiros 1 despin weight - Pass Details

Date: 13 February 2026
Orbit: 556 x 593 km, 48.2° (Epoch: 13 March)

Event Time Altitude Azimuth Distance (km) Brightness Sun altitude
Rises 00:33:21 0° 285° (WNW) 2,747 - -56.4°
Reaches altitude 10° 00:36:01 10° 268° (W) 1,854 - -56.6°
Maximum altitude 00:39:10 21° 220° (SW) 1,311 - -56.7°
Drops below altitude 10° 00:42:21 10° 172° (S) 1,863 - -56.9°
Sets 00:45:02 0° 155° (SSE) 2,765 - -57.0°
